Location: Unspecified
(0.0000°N, 0.0000°E)
Time: 06:37:38
(UTC+00:00)

Explorer 11/Cluster Stage 4 - Pass Details

Date: 15 December 2018
Orbit: 467 x 1260 km, 28.8° (Epoch: 14 June)

Event Time Altitude Azimuth Distance (km) Brightness Sun altitude
Rises 18:14:06 0° 215° (SW) 4,205 11.4 -4.3°
Reaches altitude 10° 18:18:28 10° 195° (SSW) 3,219 10.3 -5.3°
Maximum altitude 18:23:13 16° 159° (SSE) 2,686 9.4 -6.4°
Drops below altitude 10° 18:27:45 10° 123° (ESE) 3,036 9.3 -7.5°
Enters shadow 18:31:17 - 104° (ESE) 3,771 9.6 -8.3°
